Delta Virtual Airport Information Service

Houston George Bush Intercontinental Airport

ICAO: KIAH Country: United States
Latitude: 29.9844 Longitude: -95.3414
Latest Arrival : DAC1444 (KMEM-KIAH) Latest Departure : AAL1235 (B) (KIAH-KMIA)


WX CaptureLIVE
Data provided by noaa.gov | Fetched at 07:31:23

METAR : KIAH 061253Z 01010KT 10SM FEW016 SCT050 11/08 A3020 RMK AO2 SLP226 T01060078

TAF : KIAH 061121Z 0612/0718 02012KT P6SM OVC015 FM061400 02013KT P6SM SCT025 FM070300 05006KT P6SM FEW250 FM071500 08008KT P6SM FEW250


Runway Data for KIAH
Data provided by openaviationdata.com

Runway ID Mag Var Hdg Length Elevation Surface ILS Freq ILS Id ILS Slope
08L 5 84° 8992 ft 97 ft Concrete 111.55 IBZU 3
08R 5 84° 9394 ft 97 ft Concrete 109.7 IIAH 3
9 5 84° 9991 ft 97 ft Asphalt 110.9 IUYO 3
15L 5 147° 12022 ft 97 ft Concrete 111.9 IHSQ 2
15R 5 147° 10016 ft 97 ft Concrete 111.15 ILKM 3
26L 5 264° 9394 ft 97 ft Concrete 109.7 IJYV 3
26R 5 264° 8992 ft 97 ft Concrete 111.55 IOND 3
27 5 264° 9991 ft 97 ft Asphalt 110.9 IGHI 3
33L 5 327° 10016 ft 97 ft Concrete -- -- --
33R 5 327° 12022 ft 97 ft Concrete 111.9 ICDG 3

Houston George Bush Intercontinental Airport, United States
Use only for reference purposes



Not for navigational purposes.